| time (UTC) | temp F | wind direction | speed MPH | gust MPH | rain 1hr in | rain 24hr in | rain mn in | humidity % | barometer mb |
| 20260504081114 | 53 | 17 | 2.0 | 4.0 | 0.00 | 0.00 | 0.00 | 76 | 1035.8 |
| 20260504080126 | 54 | 90 | 0.0 | 2.0 | 0.00 | 0.00 | 0.00 | 75 | 1035.7 |
| 20260504045030 | 56 | 311 | 2.0 | 5.0 | 0.00 | 0.00 | 0.00 | 71 | 1034.7 |
| 20260504044028 | 56 | 312 | 4.0 | 7.0 | 0.00 | 0.00 | 0.00 | 71 | 1034.8 |
| 20260504043044 | 57 | 305 | 4.0 | 7.0 | 0.00 | 0.00 | 0.00 | 70 | 1034.7 |
| 20260504042022 | 58 | 311 | 5.0 | 7.0 | 0.00 | 0.00 | 0.00 | 69 | 1034.7 |
| 20260504041018 | 58 | 276 | 1.0 | 4.0 | 0.00 | 0.00 | 0.00 | 68 | 1034.6 |
| 20260504040116 | 59 | 298 | 2.0 | 4.0 | 0.00 | 0.00 | 0.00 | 67 | 1034.6 |
| 20260504035110 | 59 | 271 | 2.0 | 4.0 | 0.00 | 0.00 | 0.00 | 67 | 1034.6 |
| 20260504034107 | 60 | 225 | 3.0 | 4.0 | 0.00 | 0.00 | 0.00 | 68 | 1034.7 |
| 20260504033147 | 59 | 249 | 2.0 | 4.0 | 0.00 | 0.00 | 0.00 | 67 | 1034.6 |
| 20260504032102 | 59 | 290 | 3.0 | 4.0 | 0.00 | 0.00 | 0.00 | 66 | 1034.7 |
| 20260504031102 | 60 | 301 | 3.0 | 5.0 | 0.00 | 0.00 | 0.00 | 65 | 1034.7 |
| 20260504030055 | 60 | 328 | 4.0 | 6.0 | 0.00 | 0.00 | 0.00 | 64 | 1034.6 |
| 20260504025052 | 61 | 282 | 3.0 | 6.0 | 0.00 | 0.00 | 0.00 | 64 | 1034.6 |
| 20260504024109 | 61 | 272 | 3.0 | 6.0 | 0.00 | 0.00 | 0.00 | 63 | 1034.7 |
| 20260504023045 | 62 | 249 | 3.0 | 5.0 | 0.00 | 0.00 | 0.00 | 63 | 1034.7 |
| 20260504022040 | 62 | 294 | 3.0 | 6.0 | 0.00 | 0.00 | 0.00 | 63 | 1034.7 |
| 20260504021059 | 62 | 307 | 3.0 | 7.0 | 0.00 | 0.00 | 0.00 | 62 | 1034.7 |
| 20260504020036 | 63 | 307 | 5.0 | 8.0 | 0.00 | 0.00 | 0.00 | 59 | 1034.9 |
| 20260504015033 | 64 | 297 | 2.0 | 5.0 | 0.00 | 0.00 | 0.00 | 57 | 1035.0 |
| 20260504014030 | 63 | 300 | 3.0 | 6.0 | 0.00 | 0.00 | 0.00 | 62 | 1035.2 |
| 20260504013025 | 61 | 314 | 4.0 | 8.0 | 0.00 | 0.00 | 0.00 | 63 | 1035.2 |
| 20260504012023 | 62 | 312 | 5.0 | 8.0 | 0.00 | 0.00 | 0.00 | 64 | 1035.5 |
| 20260504011021 | 60 | 310 | 5.0 | 8.0 | 0.00 | 0.00 | 0.00 | 65 | 1035.6 |
| 20260504010017 | 61 | 330 | 6.0 | 11.0 | 0.00 | 0.00 | 0.00 | 65 | 1035.8 |
| 20260504005116 | 61 | 327 | 4.0 | 7.0 | 0.00 | 0.00 | 0.00 | 65 | 1035.9 |
| 20260504004113 | 61 | 324 | 3.0 | 7.0 | 0.00 | 0.00 | 0.00 | 65 | 1035.9 |
| 20260504003110 | 61 | 241 | 1.0 | 4.0 | 0.00 | 0.00 | 0.00 | 69 | 1036.1 |
| 20260504002110 | 60 | 302 | 3.0 | 6.0 | 0.00 | 0.00 | 0.00 | 70 | 1036.3 |
| 20260504001106 | 59 | 310 | 5.0 | 8.0 | 0.00 | 0.00 | 0.00 | 68 | 1036.5 |
| 20260504000104 | 59 | 317 | 3.0 | 5.0 | 0.00 | 0.00 | 0.00 | 68 | 1036.6 |
| 20260503235103 | 58 | 311 | 4.0 | 8.0 | 0.00 | 0.00 | 0.00 | 69 | 1036.6 |
| 20260503234100 | 58 | 316 | 6.0 | 10.0 | 0.00 | 0.00 | 0.00 | 70 | 1036.7 |
| 20260503233058 | 58 | 323 | 6.0 | 10.0 | 0.00 | 0.00 | 0.00 | 70 | 1036.7 |
| 20260503232056 | 58 | 318 | 4.0 | 7.0 | 0.00 | 0.00 | 0.00 | 70 | 1036.8 |
| 20260503231053 | 58 | 345 | 4.0 | 8.0 | 0.00 | 0.00 | 0.00 | 70 | 1036.8 |
| 20260503230052 | 57 | 345 | 4.0 | 8.0 | 0.00 | 0.00 | 0.00 | 70 | 1036.8 |
| 20260503225050 | 58 | 327 | 4.0 | 7.0 | 0.00 | 0.00 | 0.00 | 70 | 1036.8 |
| 20260503224047 | 58 | 330 | 2.0 | 4.0 | 0.00 | 0.00 | 0.00 | 71 | 1036.9 |
| 20260503223045 | 57 | 351 | 4.0 | 6.0 | 0.00 | 0.00 | 0.00 | 71 | 1036.8 |
| 20260503222045 | 57 | 5 | 4.0 | 6.0 | 0.00 | 0.00 | 0.00 | 71 | 1036.9 |
| 20260503221045 | 57 | 5 | 3.0 | 7.0 | 0.00 | 0.00 | 0.00 | 71 | 1036.9 |
| 20260503220039 | 57 | 354 | 3.0 | 5.0 | 0.00 | 0.00 | 0.00 | 72 | 1036.9 |
| 20260503215036 | 57 | 54 | 2.0 | 4.0 | 0.00 | 0.00 | 0.00 | 73 | 1037.0 |
| 20260503214035 | 57 | 100 | 2.0 | 3.0 | 0.00 | 0.00 | 0.00 | 75 | 1037.0 |
| 20260503213032 | 56 | 77 | 2.0 | 4.0 | 0.00 | 0.00 | 0.00 | 75 | 1037.1 |
| 20260503212031 | 55 | 52 | 2.0 | 4.0 | 0.00 | 0.00 | 0.00 | 76 | 1037.0 |
| 20260503211028 | 55 | 64 | 2.0 | 4.0 | 0.00 | 0.00 | 0.00 | 77 | 1037.0 |
| 20260503210028 | 54 | 53 | 2.0 | 4.0 | 0.00 | 0.00 | 0.00 | 80 | 1036.9 |
| 20260503205047 | 53 | 55 | 3.0 | 6.0 | 0.00 | 0.00 | 0.00 | 81 | 1036.9 |
| 20260503204021 | 53 | 39 | 3.0 | 5.0 | 0.00 | 0.00 | 0.00 | 81 | 1036.8 |
| 20260503203019 | 53 | 87 | 3.0 | 4.0 | 0.00 | 0.00 | 0.00 | 81 | 1036.7 |
| 20260503202019 | 52 | 59 | 4.0 | 6.0 | 0.00 | 0.00 | 0.00 | 81 | 1036.7 |
| 20260503201015 | 52 | 72 | 4.0 | 6.0 | 0.00 | 0.00 | 0.00 | 82 | 1036.6 |
| 20260503200113 | 52 | 75 | 3.0 | 5.0 | 0.00 | 0.00 | 0.00 | 82 | 1036.5 |
| 20260503195111 | 52 | 71 | 3.0 | 7.0 | 0.00 | 0.00 | 0.00 | 83 | 1036.3 |
| 20260503194109 | 52 | 82 | 1.0 | 4.0 | 0.00 | 0.00 | 0.00 | 83 | 1036.1 |
| 20260503193107 | 51 | 93 | 3.0 | 6.0 | 0.00 | 0.00 | 0.00 | 83 | 1036.2 |
| 20260503192107 | 51 | 99 | 3.0 | 5.0 | 0.00 | 0.00 | 0.00 | 83 | 1036.1 |
| 20260503191103 | 51 | 90 | 6.0 | 9.0 | 0.00 | 0.00 | 0.00 | 83 | 1036.2 |
| 20260503185058 | 51 | 60 | 4.0 | 8.0 | 0.00 | 0.00 | 0.00 | 83 | 1036.1 |
| 20260503184117 | 51 | 67 | 3.0 | 6.0 | 0.00 | 0.00 | 0.00 | 83 | 1036.0 |
| 20260503183056 | 51 | 86 | 3.0 | 6.0 | 0.00 | 0.00 | 0.00 | 83 | 1036.0 |
| 20260503182054 | 51 | 93 | 3.0 | 5.0 | 0.00 | 0.00 | 0.00 | 84 | 1035.9 |
| 20260503181052 | 51 | 90 | 3.0 | 5.0 | 0.00 | 0.00 | 0.00 | 84 | 1035.9 |
| 20260503180048 | 51 | 95 | 4.0 | 6.0 | 0.00 | 0.00 | 0.00 | 84 | 1035.9 |
| 20260503175047 | 51 | 94 | 3.0 | 4.0 | 0.00 | 0.00 | 0.00 | 84 | 1035.9 |
| 20260503174104 | 51 | 94 | 2.0 | 4.0 | 0.00 | 0.00 | 0.00 | 84 | 1036.0 |
| 20260503173042 | 51 | 88 | 4.0 | 7.0 | 0.00 | 0.00 | 0.00 | 85 | 1036.0 |
| 20260503172041 | 51 | 45 | 3.0 | 5.0 | 0.00 | 0.00 | 0.00 | 85 | 1036.0 |
| 20260503171037 | 51 | 73 | 3.0 | 6.0 | 0.00 | 0.00 | 0.00 | 86 | 1036.1 |
| 20260503150109 | 50 | 90 | 2.0 | 4.0 | 0.00 | 0.00 | 0.00 | 93 | 1036.5 |
| 20260503131112 | 49 | 83 | 1.0 | 2.0 | 0.00 | 0.00 | 0.00 | 95 | 1036.6 |
| 20260503130110 | 49 | 83 | 1.0 | 3.0 | 0.00 | 0.00 | 0.00 | 95 | 1036.6 |